STARLINK-37175, 68401

Orbit data source: Space-Track

STARLINK-37175, 68401 is a payload satellite owned by SpaceX/Seattle (US) in SSO that was launched on Thu, 26 Mar 2026 UTC via an FALCON 9 launch vehicle from the Air Force Western Test Range (AFWTR). Payload-class satellites include a variety of spacecraft equipped with specific instruments for various scientific and technological missions. These include communications satellites like Starlink; space stations such as the ISS; scientific satellites like the Hubble; Earth observation satellites from companies like Planet Labs, Umbra, and HawkEye 360; GPS; miniature CubeSats for education and research; and military/defense satellites.

Loading next visibility...
Identifier
68401, 2026-063X
Orbit
SSO
Country
Flag of USUS
Related business
Manufacturer
SpaceX/Seattle
Mission
Operational spacecraft
Bus & Motor
STARLINK V2MO, Unknown motor
Mass
575 kg wet, ~530 kg dry
Launch date (UTC)
2026-03-26 (3 months ago)
Launch vehicle
FALCON 9
Launch site
Air Force Western Test Range (AFWTR)
Object type
Payload
Rocket body
Debris
Shape & HBR
Unknown shape, 17.7 m
Radar Cross Section
Large (>1 m²)

Expand to show TLE details & history
Last TLE update: 6 hours ago

TLE from 6 hours ago
0 STARLINK-37175
1 68401U 26063X   26165.86126537  .00027098  00000-0  83824-3 0  9998
2 68401  97.2853 308.0778 0000144 110.0536 250.0722 15.33462213 12789
Epoch: 2026-06-14T20:40Z
TLE epoch observation values (Epoch: 2026-06-14T20:40:13.327Z)
Latitude
-0.00008°
Longitude
94.86635°
Altitude
468.638 km
Speed
7.632 km/s
True Right ascension
20h 32m 18s
True Declination
0° 00' 00"
Sunlit
Object was in full shadow at epoch
Visualization orbit readout
Latitude
Unknown
Longitude
Unknown
Altitude
Unknown
Speed
Unknown
Apparent Right ascension
Unknown
Apparent Declination
Unknown
Sunlit
N/A
Visualization observer readout
Local Sidereal Time
12:55:43
Azimuth
Unknown
Elevation
Unknown
Doppler factor
Unknown
Orbital elements
Apogee altitude
462.533 km
Perigee altitude
462.336 km
Semi-major axis
6,840.572 km
Eccentricity
0.00001
Inclination
97.2853°
RAAN
308.0778°
Arg. of periapsis
110.0536°
True anomaly
250.07065°
Mean anomaly
250.0722°
Eccentric anomaly
250.07142°
Mean motion
3.83623 °/min
Orbital period
93.84 mins
BSTAR
0.00083824
Loading maneuver chart data...
Computing Atmospheric mass density...
Loading historical data...
Loading historical data...
Loading historical data...
Loading historical data...
Loading historical data...
Loading historical data...
Loading historical data...

Documentation

Showing up to 5 results
|